Weather History for Novato, CA

Change the Weather History Date:

Monday, September 2, 2013

  Actual Average (KAPC) Record (KAPC)
Temperature  
Mean Temperature 71 °F 66 °F  
Max Temperature 80 °F 81 °F 98 °F (2010)
Min Temperature 62 °F 51 °F 46 °F (2008)
Degree Days  
Heating Degree Days 0    
Month to date heating degree days  
Since 1 July heating degree days  
Cooling Degree Days 6    
Month to date cooling degree days  
Year to date cooling degree days  
Growing Degree Days 21 (Base 50)    
Moisture  
Dew Point 60 °F    
Average Humidity 73    
Maximum Humidity 100    
Minimum Humidity 45    
Precipitation  
Precipitation 0.00 in - 0.00 in (2014)
Month to date precipitation  
Year to date precipitation  
Since 1 July precipitation  
Sea Level Pressure  
Sea Level Pressure 29.92 in    
Wind  
Wind Speed 5 mph (WSW)    
Max Wind Speed 15 mph    
Max Gust Speed 22 mph    
Visibility 10 miles    
Events Rain    
T = Trace of Precipitation, MM = Missing Value Source: NWS Daily Summary

Daily Weather History Graph

Daily Weather History Graph

Search for Another Location

Airport:

Trip Planner

Search our weather history database for the weather conditions in past years. The results will help you decide how hot, cold, wet, or windy it might be!

Date:

Astronomy

Sep. 02, 2013 Rise Set
Actual Time 6:41 AM PDT 7:37 PM PDT
Civil Twilight 6:14 AM PDT 8:04 PM PDT
Nautical Twilight 5:42 AM PDT 8:36 PM PDT
Astronomical Twilight 5:08 AM PDT 9:09 PM PDT
Moon 4:04 AM PDT (9/2) 5:53 PM PDT (9/2)
Length of Visible Light 13h 50m
Length of Day
12h 56m
Waning Crescent, 7% of the Moon is Illuminated
Sep 2
Waning Crescent
Sep 5
New
Sep 12
First Quarter
Sep 19
Full
Sep 26
Last Quarter

Hourly Weather History & Observations

Time (PDT) Temp. Heat Index Dew Point Humidity Pressure Visibility Wind Dir Wind Speed Gust Speed Precip Events Conditions
12:15 AM 71.6 °F - 55.4 °F 57% 29.91 in - West 5.8 mph - N/A   Clear
12:35 AM 68.0 °F - 60.8 °F 78% 29.91 in - East 4.6 mph - N/A   Clear
12:55 AM 66.2 °F - 60.8 °F 83% 29.91 in - ESE 6.9 mph - N/A   Clear
1:15 AM 66.2 °F - 60.8 °F 83% 29.92 in - SE 3.5 mph - N/A   Clear
1:35 AM 66.2 °F - 62.6 °F 88% 29.92 in - East 6.9 mph - N/A   Unknown
1:55 AM 64.4 °F - 62.6 °F 94% 29.91 in - SE 4.6 mph - N/A   Unknown
2:15 AM 64.4 °F - 62.6 °F 94% 29.91 in - ESE 5.8 mph - N/A   Unknown
2:35 AM 64.4 °F - 62.6 °F 94% 29.91 in 10.0 mi East 5.8 mph - N/A   Clear
2:55 AM 64.4 °F - 62.6 °F 94% 29.91 in 10.0 mi SSE 4.6 mph - N/A   Clear
3:15 AM 66.2 °F - 62.6 °F 88% 29.91 in 10.0 mi Calm Calm - N/A   Clear
3:35 AM 66.2 °F - 62.6 °F 88% 29.91 in - South 5.8 mph - N/A   Unknown
3:55 AM 66.2 °F - 62.6 °F 88% 29.91 in - SSW 4.6 mph - N/A   Unknown
4:15 AM 66.2 °F - 62.6 °F 88% 29.91 in 10.0 mi SSW 8.1 mph - N/A   Clear
4:35 AM 66.2 °F - 62.6 °F 88% 29.91 in 10.0 mi SW 4.6 mph - N/A   Clear
4:55 AM 64.4 °F - 62.6 °F 94% 29.91 in 10.0 mi North 4.6 mph - N/A   Clear
5:15 AM 64.4 °F - 62.6 °F 94% 29.91 in 10.0 mi Calm Calm - N/A   Clear
5:35 AM 64.4 °F - 62.6 °F 94% 29.91 in 10.0 mi NE 3.5 mph - N/A   Clear
5:55 AM 64.4 °F - 62.6 °F 94% 29.92 in 10.0 mi Calm Calm - N/A   Clear
6:15 AM 64.4 °F - 62.6 °F 94% 29.92 in 10.0 mi NNW 5.8 mph - N/A   Clear
6:35 AM 64.4 °F - 62.6 °F 94% 29.93 in 10.0 mi Calm Calm - N/A   Clear
6:55 AM 64.4 °F - 62.6 °F 94% 29.93 in 10.0 mi Calm Calm - N/A   Partly Cloudy
7:15 AM 64.4 °F - 62.6 °F 94% 29.94 in - Calm Calm - N/A   Unknown
7:35 AM 62.6 °F - 62.6 °F 100% 29.94 in - Calm Calm - N/A   Unknown
7:55 AM 64.4 °F - 62.6 °F 94% 29.94 in - East 3.5 mph - N/A   Unknown
8:15 AM 66.2 °F - 62.6 °F 88% 29.95 in - Calm Calm - N/A   Unknown
8:35 AM 68.0 °F - 62.6 °F 83% 29.95 in - East 4.6 mph - N/A   Clear
8:55 AM 68.0 °F - 62.6 °F 83% 29.95 in - East 3.5 mph - N/A   Partly Cloudy
9:15 AM 68.0 °F - 62.6 °F 83% 29.96 in - South 5.8 mph - N/A   Scattered Clouds
9:35 AM 68.0 °F - 62.6 °F 83% 29.96 in - South 4.6 mph - N/A   Clear
9:55 AM 71.6 °F - 60.8 °F 69% 29.96 in - ESE 3.5 mph - N/A   Clear
10:15 AM 73.4 °F - 60.8 °F 65% 29.95 in - Calm Calm - N/A   Clear
10:35 AM 75.2 °F - 60.8 °F 61% 29.95 in - Calm Calm - N/A   Clear
10:55 AM 75.2 °F - 59.0 °F 57% 29.95 in - NNE 3.5 mph - N/A   Clear
11:15 AM 77.0 °F - 59.0 °F 54% 29.95 in - NW 5.8 mph - N/A   Clear
11:35 AM 77.0 °F - 59.0 °F 54% 29.94 in - ENE 4.6 mph - N/A   Clear
11:55 AM 78.8 °F - 59.0 °F 51% 29.94 in - South 5.8 mph - N/A Rain Light Rain
12:15 PM 80.6 °F 81.1 °F 59.0 °F 48% 29.93 in - WSW 9.2 mph 16.1 mph N/A Rain Light Rain
12:35 PM 80.6 °F 81.1 °F 59.0 °F 48% 29.93 in - WSW 10.4 mph 18.4 mph N/A   Partly Cloudy
12:55 PM 80.6 °F 80.8 °F 57.2 °F 45% 29.93 in - NW 8.1 mph - N/A   Clear
1:15 PM 80.6 °F 80.8 °F 57.2 °F 45% 29.93 in - West 6.9 mph - N/A   Clear
1:35 PM 80.6 °F 81.1 °F 59.0 °F 48% 29.93 in - West 9.2 mph - N/A   Clear
1:55 PM 80.6 °F 81.1 °F 59.0 °F 48% 29.93 in - WNW 9.2 mph - N/A   Clear
2:15 PM 80.6 °F 81.1 °F 59.0 °F 48% 29.93 in - WNW 10.4 mph - N/A   Clear
2:35 PM 80.6 °F 81.1 °F 59.0 °F 48% 29.92 in - WNW 9.2 mph - N/A   Clear
2:55 PM 80.6 °F 81.1 °F 59.0 °F 48% 29.91 in - West 10.4 mph - N/A   Clear
3:15 PM 80.6 °F 81.1 °F 59.0 °F 48% 29.91 in - WSW 12.7 mph 18.4 mph N/A   Clear
3:35 PM 78.8 °F - 59.0 °F 51% 29.90 in - West 13.8 mph 21.9 mph N/A   Partly Cloudy
3:55 PM 78.8 °F - 59.0 °F 51% 29.90 in - West 11.5 mph 20.7 mph N/A   Clear
4:15 PM 78.8 °F - 59.0 °F 51% 29.90 in - WSW 13.8 mph 21.9 mph N/A   Clear
4:35 PM 77.0 °F - 59.0 °F 54% 29.89 in - West 15.0 mph 21.9 mph N/A   Clear
4:55 PM 77.0 °F - 60.8 °F 57% 29.89 in - West 15.0 mph - N/A   Clear
5:15 PM 77.0 °F - 60.8 °F 57% 29.89 in - West 12.7 mph 19.6 mph N/A   Clear
5:35 PM 75.2 °F - 60.8 °F 61% 29.89 in - WSW 5.8 mph 19.6 mph N/A   Clear
5:55 PM 75.2 °F - 60.8 °F 61% 29.89 in - SW 6.9 mph 17.3 mph N/A   Clear
6:15 PM 75.2 °F - 62.6 °F 65% 29.89 in - North 9.2 mph - N/A   Clear
6:35 PM 73.4 °F - 60.8 °F 65% 29.89 in - North 3.5 mph - N/A   Clear
6:55 PM 71.6 °F - 60.8 °F 69% 29.89 in - North 6.9 mph - N/A   Clear
7:15 PM 69.8 °F - 59.0 °F 68% 29.89 in - North 5.8 mph - N/A   Clear
7:35 PM 68.0 °F - 60.8 °F 78% 29.90 in - North 5.8 mph - N/A   Clear
7:55 PM 68.0 °F - 60.8 °F 78% 29.90 in - Calm Calm - N/A   Clear
8:15 PM 66.2 °F - 59.0 °F 78% 29.91 in - North 6.9 mph - N/A   Clear
8:35 PM 66.2 °F - 59.0 °F 78% 29.91 in - North 6.9 mph - N/A   Clear
8:55 PM 66.2 °F - 57.2 °F 73% 29.92 in - SSW 6.9 mph - N/A   Clear
9:15 PM 66.2 °F - 57.2 °F 73% 29.92 in - South 11.5 mph - N/A   Clear
9:35 PM 66.2 °F - 57.2 °F 73% 29.92 in 10.0 mi South 8.1 mph - N/A   Clear
9:55 PM 66.2 °F - 57.2 °F 73% 29.92 in 10.0 mi ESE 4.6 mph - N/A   Clear
10:15 PM 66.2 °F - 57.2 °F 73% 29.92 in 10.0 mi East 5.8 mph - N/A   Clear
10:35 PM 64.4 °F - 57.2 °F 77% 29.92 in 10.0 mi South 9.2 mph - N/A   Clear
10:55 PM 64.4 °F - 55.4 °F 73% 29.93 in 10.0 mi NNE 4.6 mph - N/A   Clear
11:15 PM 64.4 °F - 55.4 °F 73% 29.93 in 10.0 mi NNE 8.1 mph - N/A   Clear
11:35 PM 62.6 °F - 55.4 °F 77% 29.93 in 10.0 mi Calm Calm - N/A   Clear
11:55 PM 62.6 °F - 57.2 °F 82% 29.93 in 10.0 mi Calm Calm - N/A   Clear